[[{"header":{"parameterUnit":"m.s-1","parameterCategory":1,"la1":30.2991,"la2":30.254,"lo1":-89.0895,"lo2":-89.0444,"dy":0.0017,"dx":0.0017,"nx":28,"ny":28,"refTime":"2025-01-23T03:00:00:Z","depth":0,"parameterNumber":2,"parameterNumberName":"U-component_of_WINDS"},"data":[0,0,0,0,0,0,0,0,0,0,0,0,0,0,0,0,0,0,0,0,0,0,0,0,0,0,0,0,0,0,0,0,0,0,0,0,0,0,0,0,0,0,0,0,0,0,0,0,0,0,0,0,0,0,0,0,0,0,0.2715,0.2715,0,0.2645,0.2645,0.2644,0.2659,0.266,0.2662,0.2663,0.2588,0.2585,0.2582,0,0,0,0,0,0,0,0,0,0,0,0,0,0.2861,0.2858,0.2715,0.2715,0.2714,0.2646,0.2645,0.2644,0.2659,0.266,0.2662,0.2664,0.2589,0.2585,0.2582,0,0,0,0,0,0,0,0,0,0,0,0,0,0.2795,0.2857,0.2716,0.2713,0.2712,0.2646,0.2645,0.2643,0.2659,0.2661,0.2663,0.2664,0.2591,0.2586,0.2581,0.2512,0,0,0.2566,0.2564,0,0,0,0,0,0,0,0,0.2799,0.2789,0.2714,0.2713,0.2712,0.2663,0.2668,0.2599,0.2658,0.2679,0.2663,0.2665,0.2611,0.2605,0.2587,0.2508,0.2505,0.2566,0.2563,0.2561,0.2559,0,0,0,0,0,0,0,0.2803,0.2793,0.2688,0.2713,0.2712,0.2715,0.2708,0.2655,0.2635,0.2677,0.2678,0.267,0.2611,0.2592,0.2586,0.2504,0.2566,0.2562,0.2559,0.2557,0.2365,0.2363,0,0,0,0,0,0,0.2809,0.2796,0.269,0.2686,0.2761,0.2711,0.2703,0.2677,0.2635,0.2631,0.2668,0.2671,0.2599,0.2591,0.2583,0.2499,0.2561,0.2556,0.2554,0.2367,0.2365,0.2362,0,0,0,0,0,0,0.2812,0.2799,0.2693,0.2741,0.2728,0.2706,0.2677,0.2674,0.2655,0.2629,0.2625,0.2652,0.26,0.259,0.253,0.2497,0.2554,0.255,0.237,0.2366,0.2363,0.2331,0,0,0,0,0,0,0.2816,0.28,0.2774,0.2741,0.2725,0.2641,0.2675,0.2672,0.2647,0.265,0.2613,0.2609,0.2601,0.2537,0.2525,0.2491,0.2546,0.2373,0.2368,0.2364,0.2334,0.2326,0.232,0,0,0,0,0,0.2821,0.2767,0.2772,0.276,0.2692,0.2639,0.263,0.2623,0.2645,0.2618,0.2601,0.261,0.2503,0.253,0.2517,0.2481,0.2375,0.2369,0.2365,0.2338,0.2328,0.232,0,0,0,0,0,0,0.2795,0.2762,0.2768,0.2701,0.2673,0.2642,0.2607,0.2613,0.2577,0.2581,0.2574,0.2566,0.2504,0.2487,0.2519,0.2413,0.2442,0.2434,0.2426,0.2416,0.2409,0.2414,0.2542,0,0,0,0,0,0.2782,0.2742,0.2715,0.2659,0.2645,0.2628,0.2605,0.2603,0.2573,0.256,0.2539,0.2509,0.2468,0.2442,0.2403,0.2333,0.2325,0.2302,0.2295,0.2289,0.2281,0.2243,0.2233,0.2346,0.2346,0.2346,0,0,0.2753,0.2731,0.2706,0.2653,0.2631,0.2589,0.2618,0.2573,0.2542,0.2553,0.2495,0.2479,0.2444,0.2379,0.2349,0.2363,0.2249,0.2282,0.2278,0.2274,0.2237,0.2227,0.2217,0.2343,0.2343,0.2344,0,0,0.268,0.2659,0.261,0.2588,0.2554,0.2544,0.2533,0.2501,0.249,0.2433,0.244,0.2404,0.2334,0.231,0.2288,0.2208,0.2215,0.2196,0.2157,0.212,0.2111,0.2103,0.2074,0.2064,0.2189,0.2189,0.2189,0,0.2648,0.2587,0.2583,0.2538,0.2514,0.2525,0.2475,0.2453,0.2408,0.2392,0.2408,0.2322,0.23,0.2229,0.221,0.2193,0.2179,0.2199,0.2113,0.2105,0.2097,0.207,0.2059,0.2187,0.2187,0.2187,0.2188,0,0.2549,0.2507,0.2471,0.2429,0.2402,0.2354,0.2343,0.2316,0.2317,0.2305,0.2247,0.2221,0.2178,0.2161,0.2161,0.209,0.21,0.2115,0.2143,0.2084,0.2058,0.2048,0.2184,0.2185,0.2185,0.2186,0,0,0.2455,0.2414,0.24,0.2382,0.2347,0.2313,0.2267,0.2226,0.2203,0.2172,0.2132,0.2075,0.2089,0.2064,0.2062,0.203,0.1968,0.2048,0.2047,0.2033,0.1889,0.1877,0.1865,0.1973,0.1971,0.197,0.1891,0,0.2378,0.2296,0.2292,0.2218,0.2178,0.2189,0.2148,0.2122,0.2111,0.2075,0.2062,0.2021,0.2043,0.2029,0.1998,0.1982,0.1938,0.1988,0.1935,0.1933,0.1942,0.1851,0.1838,0.1765,0.1881,0.1879,0.1878,0,0.2276,0.2244,0.2165,0.2137,0.2121,0.2084,0.2047,0.2013,0.1984,0.1978,0.1952,0.1955,0.1907,0.1939,0.1873,0.1907,0.1885,0.1875,0.1872,0.1865,0.1901,0.1841,0.1742,0.173,0.1862,0.1863,0.1865,0,0.2214,0.2151,0.2096,0.208,0.2046,0.202,0.2005,0.1978,0.1954,0.1922,0.1906,0.1868,0.1847,0.1818,0.181,0.1834,0.1744,0.1775,0.1737,0.1737,0.1715,0.1717,0.161,0.1704,0.1704,0.1705,0.1705,0,0.2127,0.2078,0.2068,0.2034,0.198,0.1977,0.1924,0.191,0.1887,0.185,0.1857,0.1823,0.1816,0.178,0.1774,0.172,0.171,0.1704,0.1702,0.1702,0.1703,0.1687,0.1691,0.1702,0.1702,0.1703,0.1703,0,0.2047,0.2039,0.1979,0.1953,0.1946,0.1907,0.1884,0.1851,0.1842,0.1796,0.1785,0.1769,0.1728,0.1718,0.1668,0.1664,0.16,0.1604,0.161,0.1609,0.1571,0.1575,0.145,0.1433,0.1539,0.1538,0.1537,0,0.1992,0.1955,0.1925,0.1902,0.1885,0.1847,0.1824,0.182,0.1795,0.176,0.1732,0.1692,0.1659,0.1591,0.1575,0.1538,0.154,0.1499,0.1534,0.1536,0.1538,0.154,0.1537,0.1492,0.1491,0.149,0.1489,0,0.1893,0.1891,0.1857,0.1822,0.1793,0.1765,0.1738,0.1718,0.1711,0.1682,0.1641,0.1615,0.1566,0.1525,0.1487,0.1471,0.1478,0.1479,0.1467,0.1466,0.147,0.1467,0.159,0.1481,0.1482,0.1482,0.1483,0.1483,0.1823,0.1791,0.1766,0.1728,0.1708,0.1683,0.1651,0.1639,0.1604,0.1563,0.1564,0.1518,0.1492,0.1442,0.1424,0.1388,0.1401,0.1385,0.138,0.1376,0.1372,0.1478,0.1381,0.1382,0.1382,0.1382,0.1382,0,0.1725,0.1709,0.1675,0.1637,0.1608,0.1619,0.1591,0.1565,0.1525,0.15,0.1468,0.1421,0.1382,0.1364,0.1326,0.1301,0.1303,0.1291,0.1292,0.1288,0.1364,0.1377,0.129,0.129,0.129,0.129,0.129,0.129,0.167,0.1616,0.1612,0.1549,0.1534,0.149,0.1472,0.145,0.143,0.1377,0.1345,0.1335,0.1313,0.1274,0.1239,0.1235,0.122,0.1205,0.1203,0.1273,0.1283,0.1291,0.1304,0.1203,0.1202,0.113,0.1129,0.1129]},{"header":{"parameterUnit":"m.s-1","parameterCategory":1,"la1":30.2991,"la2":30.254,"lo1":-89.0895,"lo2":-89.0444,"dy":0.0017,"dx":0.0017,"nx":28,"ny":28,"refTime":"2025-01-23T03:00:00:Z","depth":0,"parameterNumber":3,"parameterNumberName":"V-component_of_WINDS"},"data":[0,0,0,0,0,0,0,0,0,0,0,0,0,0,0,0,0,0,0,0,0,0,0,0,0,0,0,0,0,0,0,0,0,0,0,0,0,0,0,0,0,0,0,0,0,0,0,0,0,0,0,0,0,0,0,0,0,0,-4.2455,-4.2457,0,-4.2613,-4.2615,-4.2616,-4.255,-4.2546,-4.2542,-4.2538,-4.2696,-4.2704,-4.2711,0,0,0,0,0,0,0,0,0,0,0,0,0,-4.2091,-4.2098,-4.2455,-4.2457,-4.2459,-4.2613,-4.2615,-4.2617,-4.255,-4.2546,-4.2541,-4.2537,-4.2694,-4.2703,-4.2712,0,0,0,0,0,0,0,0,0,0,0,0,0,-4.2249,-4.21,-4.2454,-4.2444,-4.2445,-4.2612,-4.2615,-4.2617,-4.2551,-4.2545,-4.254,-4.2534,-4.2691,-4.2702,-4.2713,-4.2899,0,0,-4.2749,-4.2754,0,0,0,0,0,0,0,0,-4.224,-4.2262,-4.2444,-4.2445,-4.2446,-4.2556,-4.2544,-4.2712,-4.2553,-4.2511,-4.2538,-4.2532,-4.2654,-4.2668,-4.271,-4.2906,-4.2913,-4.275,-4.2757,-4.2762,-4.2765,0,0,0,0,0,0,0,-4.2229,-4.2255,-4.2517,-4.2446,-4.2448,-4.243,-4.2446,-4.2576,-4.2612,-4.2514,-4.2509,-4.2529,-4.2653,-4.2699,-4.2713,-4.2915,-4.275,-4.276,-4.2767,-4.2772,-4.3271,-4.3277,0,0,0,0,0,0,-4.2219,-4.2246,-4.2512,-4.2522,-4.2327,-4.2441,-4.2459,-4.2526,-4.2611,-4.2618,-4.2534,-4.2526,-4.2682,-4.27,-4.2719,-4.2942,-4.2762,-4.2773,-4.2779,-4.3265,-4.3273,-4.3279,0,0,0,0,0,0,-4.2211,-4.2243,-4.2506,-4.2383,-4.2415,-4.2454,-4.2529,-4.2532,-4.2578,-4.2626,-4.2631,-4.2574,-4.2678,-4.2702,-4.2855,-4.2946,-4.2778,-4.2788,-4.3258,-4.3267,-4.3276,-4.3389,0,0,0,0,0,0,-4.2201,-4.2241,-4.2313,-4.2385,-4.2422,-4.2641,-4.2535,-4.254,-4.2599,-4.2589,-4.2665,-4.2672,-4.2676,-4.2838,-4.2866,-4.2959,-4.2798,-4.325,-4.3262,-4.3273,-4.3378,-4.3402,-4.3422,0,0,0,0,0,-4.2188,-4.2338,-4.2317,-4.2349,-4.2513,-4.2646,-4.2667,-4.2669,-4.2606,-4.2678,-4.2709,-4.267,-4.2931,-4.2854,-4.2886,-4.2983,-4.3244,-4.3258,-4.3272,-4.3368,-4.3397,-4.3421,0,0,0,0,0,0,-4.2274,-4.2347,-4.2325,-4.2502,-4.2569,-4.2635,-4.2726,-4.27,-4.2785,-4.2773,-4.277,-4.2788,-4.2946,-4.2979,-4.2892,-4.3167,-4.3078,-4.3099,-4.314,-4.3168,-4.3189,-4.3178,-4.2807,0,0,0,0,0,-4.2313,-4.2417,-4.2474,-4.2625,-4.266,-4.2688,-4.2746,-4.2742,-4.281,-4.2837,-4.2879,-4.2946,-4.3043,-4.3107,-4.3199,-4.3382,-4.3397,-4.3464,-4.3486,-4.3504,-4.3523,-4.3622,-4.3652,-4.3326,-4.3326,-4.3326,0,0,-4.2396,-4.2449,-4.2514,-4.2644,-4.2695,-4.2801,-4.2712,-4.2828,-4.2906,-4.2854,-4.3002,-4.3035,-4.3108,-4.3277,-4.3354,-4.331,-4.3616,-4.3522,-4.3536,-4.3545,-4.364,-4.3671,-4.3698,-4.3336,-4.3334,-4.3332,0,0,-4.2601,-4.2652,-4.2783,-4.2836,-4.2915,-4.2933,-4.2964,-4.3035,-4.3055,-4.3203,-4.3166,-4.3258,-4.3426,-4.348,-4.353,-4.3755,-4.3722,-4.3785,-4.3901,-4.3997,-4.4023,-4.4046,-4.4127,-4.4156,-4.3803,-4.3803,-4.3803,0,-4.2694,-4.2854,-4.2854,-4.2973,-4.3031,-4.299,-4.3123,-4.3174,-4.3278,-4.3319,-4.3269,-4.3478,-4.3525,-4.3706,-4.3761,-4.3802,-4.3837,-4.3777,-4.402,-4.4043,-4.4064,-4.4141,-4.4171,-4.381,-4.3809,-4.3809,-4.3808,0,-4.2964,-4.3075,-4.3171,-4.3275,-4.3344,-4.3469,-4.3487,-4.3556,-4.3545,-4.3567,-4.3718,-4.3773,-4.3875,-4.3917,-4.3908,-4.4097,-4.4068,-4.4019,-4.393,-4.4102,-4.4174,-4.4204,-4.3821,-4.3818,-4.3816,-4.3814,0,0,-4.3228,-4.333,-4.3366,-4.3412,-4.3496,-4.3581,-4.3704,-4.3806,-4.3865,-4.3938,-4.404,-4.4183,-4.4138,-4.4195,-4.419,-4.4275,-4.445,-4.4216,-4.4217,-4.4258,-4.4662,-4.4699,-4.4734,-4.4429,-4.4434,-4.4439,-4.4656,0,-4.3441,-4.3658,-4.3661,-4.386,-4.3963,-4.3925,-4.4032,-4.4094,-4.4118,-4.4207,-4.4231,-4.4333,-4.4266,-4.43,-4.4382,-4.4412,-4.4532,-4.4396,-4.4523,-4.4528,-4.4507,-4.4771,-4.4811,-4.5014,-4.4684,-4.4689,-4.4693,0,-4.3718,-4.3801,-4.4011,-4.408,-4.4123,-4.422,-4.4313,-4.4399,-4.4468,-4.4479,-4.4542,-4.4525,-4.4648,-4.4554,-4.4724,-4.4632,-4.4684,-4.4706,-4.4714,-4.4727,-4.4622,-4.4792,-4.5078,-4.5109,-4.4737,-4.4733,-4.473,0,-4.3891,-4.4055,-4.4202,-4.4243,-4.4327,-4.4395,-4.4433,-4.4497,-4.4557,-4.4638,-4.4677,-4.477,-4.4822,-4.4894,-4.4902,-4.4833,-4.5073,-4.498,-4.5085,-4.5085,-4.5138,-4.5135,-4.5439,-4.5171,-4.517,-4.517,-4.5169,0,-4.4128,-4.4258,-4.4281,-4.4372,-4.4516,-4.4517,-4.4659,-4.4691,-4.4748,-4.4843,-4.4814,-4.4904,-4.4909,-4.5,-4.5006,-4.5146,-4.5169,-4.5181,-4.5182,-4.5185,-4.5183,-4.5219,-4.5206,-4.5178,-4.5176,-4.5174,-4.5173,0,-4.4346,-4.4367,-4.4525,-4.4591,-4.4611,-4.4714,-4.477,-4.4856,-4.4876,-4.4997,-4.5025,-4.5057,-4.5163,-4.5178,-4.5301,-4.5305,-4.5474,-4.5459,-4.5451,-4.545,-4.5554,-4.5545,-4.5892,-4.5938,-4.5639,-4.5642,-4.5645,0,-4.4497,-4.4597,-4.4674,-4.4736,-4.4778,-4.4879,-4.4941,-4.4945,-4.5011,-4.5097,-4.5172,-4.5275,-4.5358,-4.5529,-4.5562,-4.5656,-4.5644,-4.5759,-4.5657,-4.5657,-4.5646,-4.5641,-4.5651,-4.5779,-4.5782,-4.5785,-4.5787,0,-4.4763,-4.4768,-4.4859,-4.4955,-4.503,-4.5105,-4.5175,-4.5227,-4.524,-4.5315,-4.5424,-4.5489,-4.5615,-4.5718,-4.5811,-4.5848,-4.582,-4.5818,-4.5848,-4.5852,-4.5844,-4.5851,-4.5506,-4.5811,-4.5808,-4.5806,-4.5805,-4.5804,-4.4953,-4.5039,-4.5108,-4.521,-4.5264,-4.533,-4.5414,-4.5445,-4.5536,-4.5641,-4.5637,-4.5757,-4.5822,-4.5944,-4.5988,-4.608,-4.6042,-4.6085,-4.6096,-4.6107,-4.6118,-4.5829,-4.6097,-4.6096,-4.6096,-4.6095,-4.6095,0,-4.5217,-4.5259,-4.5354,-4.5454,-4.5534,-4.5502,-4.5578,-4.5647,-4.5753,-4.5817,-4.5899,-4.6024,-4.6123,-4.6164,-4.6261,-4.6327,-4.6317,-4.6353,-4.6348,-4.6357,-4.6146,-4.6111,-4.6359,-4.6359,-4.6359,-4.6359,-4.6359,-4.6359,-4.5365,-4.551,-4.5523,-4.5694,-4.5734,-4.5853,-4.5899,-4.5959,-4.6011,-4.6152,-4.6235,-4.6261,-4.6315,-4.6416,-4.6505,-4.6514,-4.6551,-4.6593,-4.6597,-4.6399,-4.6372,-4.6347,-4.6314,-4.6601,-4.6601,-4.6801,-4.6803,-4.6804]}]]